Flag for Germany Weather past 2 weeks in Bad Neuenahr-Ahrweiler, Rhineland-Palatinate, Germany

Now
66 °F

Overcast.


Feels Like: 66 °F
Forecast: 54 / 68 °F
Wind: 6 mph from West

Location: Bonn-Hangelar

Current Time: Aug 29, 2014 at 7:11:12 PM

Latest Report: Aug 29, 2014 at 6:00 PM


Visibility: 25 mi

Pressure: 30.01 "Hg

Humidity: 61%

Dew point: 52 °F

Location of Bad Neuenahr-AhrweilerLocation

Historic Weather in Bad Neuenahr-Ahrweiler — Graph

°F

Bad Neuenahr-Ahrweiler temperature yesterday

Maximum temperature yesterday: 70 °F (at 6:00 PM)
Minimum temperature yesterday: 58 °F (at 7:00 AM)
Average temperature yesterday: 64 °F

Past Weeks' High & Low Weather Summary

 TemperatureHumidityPressure
High70 °F (Aug 28, 6:00 PM)99% (Aug 26, 4:00 AM)30.13 "Hg (Aug 26, 4:00 AM)
Low47 °F (Aug 21, 6:00 AM)51% (Aug 22, 4:00 PM)29.61 "Hg (Aug 26, 6:00 AM)
Average57 °F82%29.94 "Hg
* Reported Aug 14 6:00 PM — Aug 29 6:00 PM, Bad Neuenahr-Ahrweiler, Weather by CustomWeather, © 2014

Note: Actual official high and low records may vary slightly from our data, if they occured in-between our weather recording intervals... More about our weather records

Advertising

Bad Neuenahr-Ahrweiler weather history for previous 24 hours

 ConditionsComfort  
Time TempWeatherWind HumidityBarometerVisibility
6:00 PM
Aug 29
66 °FOvercast.6 mph61%30.01 "Hg25 mi
5:00 PM64 °FOvercast.6 mph69%30.01 "Hg25 mi
4:00 PM63 °FPartly sunny.7 mph71%30.02 "Hg25 mi
3:00 PM63 °FLow clouds.5 mph77%30.03 "Hg25 mi
2:00 PM60 °FOvercast.5 mph88%30.04 "Hg16 mi
1:00 PM59 °FLight rain. Low clouds.5 mph85%30.03 "Hg12 mi
12:00 PM60 °FOvercast.6 mph82%30.03 "Hg16 mi
11:00 AM61 °FOvercast.6 mph80%30.02 "Hg19 mi
10:00 AM61 °FOvercast.5 mph88%30.01 "Hg22 mi
9:00 AM61 °FOvercast.5 mph89%30.00 "Hg22 mi
8:00 AM59 °FOvercast.5 mph90%29.99 "Hg22 mi
7:00 AM59 °FPartly sunny.6 mph89%29.99 "Hg22 mi
6:00 AM58 °FPassing clouds.5 mph91%29.99 "Hg28 mi
5:00 AM58 °FOvercast.5 mph90%29.99 "Hg19 mi
4:00 AM58 °FOvercast.3 mph89%29.99 "Hg19 mi
3:00 AM60 °FOvercast.5 mph90%29.98 "Hg19 mi
2:00 AM60 °FOvercast.5 mph90%29.98 "Hg19 mi
1:00 AM62 °FOvercast.5 mph87%29.98 "Hg25 mi
12:00 AM62 °FPassing clouds.6 mph90%29.98 "Hg19 mi
11:00 PM
Aug 28
63 °FLow clouds.6 mph90%29.96 "Hg22 mi
10:00 PM66 °FOvercast.6 mph81%29.93 "Hg31 mi
9:00 PM66 °FPassing clouds.5 mph81%29.93 "Hg31 mi
8:00 PM68 °FOvercast.3 mph76%29.93 "Hg31 mi
7:00 PM69 °FPartly sunny.6 mph70%29.93 "Hg31 mi
Weather by CustomWeather, © 2014

See weather overviewHow to use our weather pages